Regional Weather Roundup
Issued by NWS

Home | Current Version | Previous Version | Graphics & Text | Print | Product List | Glossary On
Versions: 1 2 3 4 5 6 7 8 9 10 11 12 13 14 15 16 17 18 19 20 21 22 23 24 25 26 27 28 29 30 31 32 33 34 35 36 37 38 39 40 41 42 43 44 45 46 47 48 49 50
000
ASUS43 KBIS 170910
RWRND

NORTH DAKOTA REGIONAL WEATHER ROUNDUP
NATIONAL WEATHER SERVICE BISMARCK ND
300 AM CST SAT FEB 17 2018

NOTE: "FAIR" INDICATES FEW OR NO CLOUDS BELOW 12,000 FEET WITH NO
SIGNIFICANT WEATHER AND/OR OBSTRUCTIONS TO VISIBILITY.


NDZ001>003-009>011-017-171000-
NORTHWEST NORTH DAKOTA

CITY           SKY/WX    TMP DP  RH WIND       PRES   REMARKS
WILLISTON      MOCLDY    14   9  80 NW10      29.85R WCI   1
MINOT          CLEAR     17  11  77 W13       29.79R WCI   4
MINOT AFB      CLEAR     14  10  83 W13         N/A  WCI   0
$$

NDZ018>021-031>035-040>046-171000-
SOUTHWEST NORTH DAKOTA

CITY           SKY/WX    TMP DP  RH WIND       PRES   REMARKS
BISMARCK       PTCLDY    18  15  88 W7        29.82R WCI   9
DICKINSON      CLOUDY    19  17  92 W14       29.77R WCI   6
GARRISON         N/A     15  11  83 NW10      29.79R WCI   2
HETTINGER ARPT CLOUDY    14  11  87 W8        29.81R WCI   3
$$

NDZ004>008-012>016-024-026-027-054-171000-
NORTHEAST NORTH DAKOTA

CITY           SKY/WX    TMP DP  RH WIND       PRES   REMARKS
GRAND FORKS    FAIR      16  12  84 W6        29.77S WCI   7
GRND FRKS AFB  FAIR      16  11  78 W7        29.77R WCI   7
DEVILS LAKE    CLOUDY    16  12  84 W14       29.76R WCI   2
$$

NDZ022-023-025-028>030-036>039-047>053-171000-
SOUTHEAST NORTH DAKOTA

CITY           SKY/WX    TMP DP  RH WIND       PRES   REMARKS
FARGO          FAIR      21  16  81 SW9       29.80S WCI  11
JAMESTOWN      CLEAR     18  13  80 W7        29.78R WCI   9
$$




USA.gov is the U.S. government's official web portal to all federal, state and local government web resources and services.